TimeCST,TemperatureF,Dew PointF,Humidity,Sea Level PressureIn,VisibilityMPH,Wind Direction,Wind SpeedMPH,Gust SpeedMPH,PrecipitationIn,Events,Conditions,WindDirDegrees,DateUTC
12:15 AM,49.6,45.7,86,29.84,7.0,SE,10.4,-,N/A,,Overcast,140,2013-03-09 06:15:00
12:35 AM,49.5,45.9,87,29.84,7.0,SSE,12.7,-,N/A,,Overcast,150,2013-03-09 06:35:00
12:55 AM,49.6,45.7,86,29.82,7.0,SSE,13.8,-,N/A,,Overcast,150,2013-03-09 06:55:00
1:15 AM,50.0,45.5,85,29.82,10.0,SSE,10.4,-,N/A,,Overcast,150,2013-03-09 07:15:00
1:35 AM,50.0,45.1,83,29.80,7.0,SSE,10.4,-,N/A,Thunderstorm,Thunderstorm,150,2013-03-09 07:35:00
1:55 AM,50.0,45.5,85,29.80,7.0,SSE,12.7,-,N/A,Rain,Light Rain,160,2013-03-09 07:55:00
2:15 AM,50.4,45.5,83,29.79,10.0,SSE,15.0,-,N/A,Thunderstorm,Unknown,160,2013-03-09 08:15:00
2:35 AM,50.5,45.5,83,29.78,10.0,SSE,9.2,-,N/A,Rain-Thunderstorm,Light Thunderstorms and Rain,160,2013-03-09 08:35:00
2:55 AM,50.4,45.9,85,29.77,10.0,SSE,9.2,-,N/A,,Overcast,160,2013-03-09 08:55:00
3:15 AM,50.0,46.4,87,29.75,10.0,SSE,10.4,-,N/A,,Overcast,160,2013-03-09 09:15:00
3:35 AM,52.0,47.7,85,29.75,7.0,SSE,15.0,-,N/A,,Overcast,160,2013-03-09 09:35:00
3:55 AM,52.3,47.1,82,29.73,10.0,SSE,16.1,20.7,N/A,,Overcast,150,2013-03-09 09:55:00
4:15 AM,51.6,46.4,82,29.73,10.0,SSE,11.5,-,N/A,,Overcast,150,2013-03-09 10:15:00
4:35 AM,51.3,46.6,84,29.73,10.0,SSE,10.4,-,N/A,,Overcast,150,2013-03-09 10:35:00
4:55 AM,50.9,46.4,85,29.71,10.0,SE,10.4,-,N/A,,Overcast,130,2013-03-09 10:55:00
5:15 AM,50.9,46.6,85,29.71,7.0,SSE,12.7,17.3,N/A,,Overcast,160,2013-03-09 11:15:00
5:35 AM,50.9,46.8,86,29.71,7.0,SSE,9.2,-,N/A,,Overcast,150,2013-03-09 11:35:00
5:55 AM,50.9,47.1,87,29.69,7.0,SE,11.5,-,N/A,,Overcast,140,2013-03-09 11:55:00
6:15 AM,51.4,48.2,89,29.67,7.0,SSE,11.5,-,N/A,,Overcast,150,2013-03-09 12:15:00
6:35 AM,52.7,49.3,88,29.65,5.0,SSE,12.7,19.6,N/A,,Overcast,160,2013-03-09 12:35:00
6:55 AM,53.6,50.4,89,29.61,7.0,SSE,20.7,-,N/A,,Overcast,160,2013-03-09 12:55:00
7:15 AM,54.7,51.1,88,29.58,7.0,South,25.3,31.1,N/A,,Overcast,170,2013-03-09 13:15:00
7:35 AM,55.0,50.9,86,29.60,7.0,South,21.9,34.5,N/A,,Scattered Clouds,170,2013-03-09 13:35:00
7:55 AM,55.0,50.9,86,29.61,7.0,South,23.0,33.4,N/A,,Mostly Cloudy,170,2013-03-09 13:55:00
8:15 AM,55.0,51.1,86,29.64,7.0,SSW,17.3,26.5,N/A,,Mostly Cloudy,200,2013-03-09 14:15:00
8:35 AM,55.2,51.1,86,29.60,10.0,South,16.1,23.0,N/A,,Scattered Clouds,180,2013-03-09 14:35:00
8:55 AM,55.9,51.3,84,29.61,10.0,SSW,16.1,26.5,N/A,,Scattered Clouds,200,2013-03-09 14:55:00
9:15 AM,56.5,51.8,84,29.61,10.0,South,20.7,25.3,N/A,,Scattered Clouds,190,2013-03-09 15:15:00
9:35 AM,57.2,51.6,82,29.60,10.0,South,20.7,26.5,N/A,,Clear,180,2013-03-09 15:35:00
9:55 AM,58.1,52.2,81,29.62,10.0,South,16.1,21.9,N/A,,Clear,190,2013-03-09 15:55:00
10:15 AM,60.1,52.2,75,29.62,10.0,South,21.9,28.8,N/A,,Scattered Clouds,180,2013-03-09 16:15:00
10:35 AM,59.0,51.4,76,29.62,10.0,South,25.3,31.1,N/A,,Clear,180,2013-03-09 16:35:00
10:55 AM,57.9,50.7,77,29.61,10.0,South,19.6,31.1,N/A,,Scattered Clouds,170,2013-03-09 16:55:00
11:15 AM,59.2,51.1,74,29.62,10.0,South,20.7,31.1,N/A,,Scattered Clouds,180,2013-03-09 17:15:00
11:35 AM,61.0,50.9,69,29.61,10.0,South,21.9,28.8,N/A,,Scattered Clouds,190,2013-03-09 17:35:00
11:55 AM,61.7,50.9,68,29.60,10.0,South,24.2,29.9,N/A,,Scattered Clouds,180,2013-03-09 17:55:00
12:15 PM,60.6,50.9,70,29.60,10.0,South,20.7,29.9,N/A,,Mostly Cloudy,180,2013-03-09 18:15:00
12:35 PM,62.4,51.4,67,29.59,10.0,South,21.9,28.8,N/A,,Mostly Cloudy,180,2013-03-09 18:35:00
12:55 PM,61.0,51.4,71,29.58,10.0,South,17.3,26.5,N/A,,Scattered Clouds,180,2013-03-09 18:55:00
1:15 PM,63.0,51.8,67,29.56,10.0,South,18.4,-,N/A,,Scattered Clouds,180,2013-03-09 19:15:00
1:35 PM,61.5,51.1,69,29.57,10.0,South,13.8,23.0,N/A,,Scattered Clouds,170,2013-03-09 19:35:00
1:55 PM,60.4,50.9,71,29.57,10.0,South,18.4,23.0,N/A,,Mostly Cloudy,180,2013-03-09 19:55:00
2:15 PM,59.9,50.9,72,29.55,10.0,SSE,15.0,19.6,N/A,,Mostly Cloudy,160,2013-03-09 20:15:00
2:35 PM,61.0,51.8,72,29.55,10.0,South,16.1,21.9,N/A,,Scattered Clouds,170,2013-03-09 20:35:00
2:55 PM,61.2,52.0,72,29.54,10.0,South,19.6,27.6,N/A,,Mostly Cloudy,170,2013-03-09 20:55:00
3:15 PM,63.1,51.4,66,29.53,10.0,South,20.7,25.3,N/A,,Mostly Cloudy,180,2013-03-09 21:15:00
3:35 PM,64.2,50.7,61,29.52,10.0,South,21.9,28.8,N/A,,Clear,170,2013-03-09 21:35:00
3:55 PM,64.2,50.5,61,29.52,10.0,South,19.6,25.3,N/A,,Clear,170,2013-03-09 21:55:00
4:15 PM,64.4,50.4,60,29.51,10.0,South,20.7,28.8,N/A,,Clear,170,2013-03-09 22:15:00
4:35 PM,64.6,50.2,60,29.50,10.0,SSE,20.7,27.6,N/A,,Clear,160,2013-03-09 22:35:00
4:55 PM,64.6,50.9,61,29.51,10.0,SSE,16.1,26.5,N/A,,Clear,160,2013-03-09 22:55:00
5:15 PM,63.7,50.9,63,29.51,10.0,SSE,19.6,25.3,N/A,,Clear,160,2013-03-09 23:15:00
5:35 PM,63.0,50.5,64,29.51,10.0,South,17.3,24.2,N/A,,Clear,170,2013-03-09 23:35:00
5:55 PM,61.5,51.1,69,29.52,10.0,South,16.1,19.6,N/A,,Clear,170,2013-03-09 23:55:00
6:15 PM,59.7,51.3,74,29.53,10.0,South,9.2,-,N/A,,Clear,170,2013-03-10 00:15:00
6:35 PM,52.3,43.7,72,29.57,10.0,NW,18.4,24.2,N/A,,Mostly Cloudy,320,2013-03-10 00:35:00
6:55 PM,45.7,39.4,79,29.58,10.0,NNW,16.1,28.8,N/A,,Overcast,340,2013-03-10 00:55:00
7:15 PM,43.2,37.4,80,29.59,10.0,North,20.7,35.7,N/A,Thunderstorm,Overcast,350,2013-03-10 01:15:00
7:35 PM,42.3,36.7,81,29.62,10.0,North,19.6,25.3,N/A,,Overcast,350,2013-03-10 01:35:00
7:55 PM,40.5,34.7,80,29.65,10.0,North,20.7,32.2,N/A,,Overcast,350,2013-03-10 01:55:00
8:15 PM,40.1,34.7,81,29.64,10.0,NNE,20.7,28.8,N/A,Thunderstorm,Thunderstorm,20,2013-03-10 02:15:00
8:35 PM,38.5,34.9,87,29.69,1.8,NW,13.8,19.6,0.08,Thunderstorm,Thunderstorm,310,2013-03-10 02:35:00
8:55 PM,37.6,34.5,89,29.66,7.0,North,19.6,24.2,0.12,Snow,Light Snow,360,2013-03-10 02:55:00
9:15 PM,36.7,32.9,86,29.69,10.0,North,17.3,28.8,N/A,Rain,Light Rain,350,2013-03-10 03:15:00
9:35 PM,36.5,32.7,86,29.70,2.0,North,20.7,27.6,0.07,Snow,Light Snow,360,2013-03-10 03:35:00
9:55 PM,36.1,32.9,88,29.69,4.0,North,19.6,28.8,0.11,Snow,Light Snow,360,2013-03-10 03:55:00
10:15 PM,35.6,32.2,87,29.70,5.0,North,12.7,23.0,0.01,Rain,Light Rain,10,2013-03-10 04:15:00
10:35 PM,35.6,32.4,88,29.70,4.0,North,17.3,24.2,0.03,Rain,Light Rain,360,2013-03-10 04:35:00
10:55 PM,35.1,32.0,89,29.71,7.0,North,17.3,25.3,0.04,,Overcast,360,2013-03-10 04:55:00
11:15 PM,35.1,31.8,88,29.73,10.0,North,12.7,26.5,N/A,,Overcast,350,2013-03-10 05:15:00
11:35 PM,34.9,31.6,88,29.74,10.0,North,19.6,27.6,N/A,,Overcast,10,2013-03-10 05:35:00
11:55 PM,34.9,31.5,87,29.73,10.0,North,19.6,24.2,N/A,,Overcast,360,2013-03-10 05:55:00